Reflectivity
-0 23 35 29 15 22 37 29 25 20 25 16 18 21 20 19 12 4 -10 -18 -20 -20 -20 -20 -20 -20 -20
6 2 22 16 27 26 21 20 14 16 14 3 11 21 4 -1 -19 -20 -20 -20 -20 -20 -20 -4 -20 9 -15
-15 10 -11 25 20 18 25 22 3 21 12 3 14 -17 -20 -20 -20 -20 -20 -20 -20 -8 -20 -20 -20 -14 -16
-3 -2 -6 -4 17 5 -2 2 5 -18 -20 -19 -20 -20 -20 -20 -20 -20 -20 -20 -20 -20 -20 -20 -20 -20 -20
-18 -15 -15 -13 -13 11 -4 -15 -17 -20 -20 -20 -20 -20 -20 -20 -20 -20 -20 -20 -20 -20 -20 -12 -7 1 6
-17 -20 -20 -20 -20 -20 -20 -20 -20 -20 -20 -20 -20 -20 -20 -20 -20 -20 -20 -20 -20 -20 -20 -5 -5 10 11
-20 -20 -20 -20 -20 -20 -20 -20 -20 -20 -20 -20 -20 -20 -20 -20 -20 -20 -20 -20 -20 -20 -20 -17 -15 -9 11
-20 -20 -20 -20 -20 -20 -20 -20 -20 -20 -20 -20 -20 -20 -20 -20 -20 -20 -20 -20 -20 -20 -20 -20 -20 -13 -6
-20 -20 -20 -20 -20 -20 -20 -20 -20 -20 -20 -20 -20 -20 -20 -20 -20 -20 -20 -20 -20 -20 -20 -20 -20 -20 -20
-20 -20 -20 -20 -20 -20 -20 -20 -20 -20 -20 -20 -20 -20 -20 -20 -20 -20 -20 -20 -20 -20 -20 -20 -20 -20 -20
-20 -20 -20 -20 -20 -20 -20 -20 -20 -20 -20 -20 -20 -20 -10 -20 -20 -20 -20 -20 -20 -20 -20 -20 -20 -20 -20
-20 -20 -20 -20 -20 -20 -20 -20 -20 -20 -20 -20 -19 -20 -20 -20 -20 -20 -20 -20 -20 -20 -20 -20 -20 -20 -13
-20 -20 -20 -20 -20 -20 -20 -20 -20 -20 -18 -20 -20 -20 -18 -20 -20 -20 -20 -20 -20 -20 -20 -20 -20 -20 -20
-20 -20 -20 -20 -20 -20 -20 -20 -20 -20 -20 -10 -20 -20 -17 -19 -20 -20 -20 -20 -20 -20 -20 -20 -20 -20 -20
-20 -20 -20 -20 -20 -20 -20 -20 -20 -20 -20 -20 -20 -20 -20 -19 -16 -20 -20 -20 -20 -20 -20 -20 -20 -20 -20
-20 -20 -20 -20 -20 -20 -20 -20 -20 -20 -20 -20 -20 -20 -20 -20 -20 -20 -20 -20 -20 -20 -20 -20 -20 -20 -20
-20 -20 -20 -20 -19 -20 -20 -20 -20 -20 -20 -20 -20 -20 -20 -20 -20 -20 -20 -20 -20 -20 -20 -20 -20 -20 -20
Wind_Speed
1 3 3 3 3 4 3 2 2 8 12 13 14 17 19 15 13 13 15 16 17 17 17 17 17 16 16
2 1 2 2 3 4 4 4 4 8 11 13 16 15 12 12 13 15 14 15 16 16 16 16 17 17 17
2 1 1 2 2 2 2 1 3 4 8 9 11 13 13 11 12 14 14 14 14 14 14 15 16 17 17
2 2 1 2 3 1 0 2 2 3 6 4 6 8 11 12 12 12 11 13 15 15 15 16 16 17 17
2 2 1 2 1 1 2 1 2 1 1 2 2 2 4 9 11 13 13 14 14 15 15 16 17 17 18
2 2 3 1 1 1 2 2 1 1 1 2 3 4 4 4 11 12 13 13 14 14 15 16 17 17 18
2 1 1 0 2 1 1 2 2 2 0 4 2 3 3 5 11 13 13 13 13 12 12 13 15 16 18
3 3 2 3 3 4 5 3 2 3 3 3 1 3 3 4 11 11 10 8 7 9 13 14 15 17 18
5 3 4 5 5 4 0 2 2 2 1 1 2 3 3 3 2 2 2 7 11 12 13 15 16 18 13
4 5 5 5 5 3 3 3 2 3 2 2 2 2 5 2 2 3 3 10 12 14 17 17 16 5 5
3 3 2 2 2 2 3 4 3 3 3 1 1 1 2 4 3 2 2 5 6 9 16 17 16 12 6
2 2 2 2 2 2 1 3 3 5 4 2 3 2 3 6 7 3 4 5 6 8 5 11 16 18 19
1 1 2 2 3 3 3 4 4 4 6 8 7 7 6 7 8 9 10 3 5 7 4 5 6 5 7
2 2 1 3 3 2 2 2 3 4 6 7 8 8 8 8 8 11 7 6 3 4 4 6 6 7 9
0 2 4 5 4 3 3 3 4 3 4 3 6 8 8 10 10 10 10 10 8 9 6 9 9 9 9
3 3 4 4 5 4 4 4 6 6 6 4 3 3 5 8 19 12 11 12 10 9 8 9 12 9 9
3 4 4 5 8 5 5 4 6 6 7 4 2 3 8 10 5 15 8 8 6 7 7 10 12 12 9
Wind_Direction
344 34 130 148 107 92 106 71 30 242 233 226 241 260 268 273 272 271 272 274 275 279 280 278 277 276 274
52 162 32 54 105 125 151 208 214 240 253 259 266 274 271 268 266 267 275 281 276 275 275 277 277 281 279
127 82 73 172 130 79 202 244 272 269 265 259 257 259 264 277 281 276 271 274 273 275 279 278 273 271 274
93 100 165 95 79 111 318 238 262 256 259 264 280 296 290 287 280 281 289 280 273 271 270 269 269 269 270
51 46 58 58 95 166 204 55 327 273 8 344 351 301 289 286 280 268 268 269 267 266 270 273 273 273 273
8 39 34 12 40 102 153 91 297 354 42 272 250 264 261 258 268 270 265 264 268 273 275 280 279 277 278
74 61 123 341 102 58 74 126 218 273 97 270 235 266 254 262 277 273 268 271 275 279 278 285 291 287 282
112 174 173 185 173 172 181 194 269 269 169 259 304 268 274 258 279 271 258 260 276 303 304 299 293 289 283
29 335 308 322 193 116 197 92 306 269 216 223 314 292 281 290 301 333 8 319 306 304 297 300 295 290 289
353 352 2 335 337 165 157 157 182 337 247 109 333 12 326 303 296 296 309 297 290 289 295 292 289 281 276
322 314 321 331 37 77 141 138 145 243 260 114 193 267 231 294 276 261 220 267 264 274 282 283 286 278 266
340 331 354 356 312 297 230 199 211 228 272 189 260 202 244 276 278 269 267 250 241 256 244 270 281 278 282
308 271 224 235 300 331 304 306 266 251 247 225 235 244 233 249 268 282 300 279 255 254 245 237 254 257 275
233 255 280 298 294 284 256 251 269 266 256 244 240 243 255 247 255 271 264 264 267 254 245 261 255 248 250
230 268 304 303 289 266 260 264 256 267 273 256 250 251 252 257 264 258 270 267 263 275 269 273 269 266 256
302 291 283 283 285 275 258 254 277 276 273 258 255 294 272 252 239 261 260 267 270 268 262 270 281 273 260
271 276 281 281 298 287 276 255 270 272 271 268 235 238 279 278 262 254 248 259 257 258 250 265 272 276 275